Weather History for KOLY - February, 2012

Change the Weather History Date:

Saturday, February 25, 2012

  Actual Average (KEVV) Record (KEVV)
Temperature  
Mean Temperature 34 °F 40 °F  
Max Temperature 39 °F 49 °F 76 °F (2000)
Min Temperature 30 °F 30 °F -3 °F (1967)
Degree Days  
Heating Degree Days 30 25  
Month to date heating degree days 721  
Since 1 July heating degree days 3500  
Cooling Degree Days 0 0  
Month to date cooling degree days 0  
Year to date cooling degree days 0  
Moisture  
Dew Point 20 °F    
Average Humidity 59    
Maximum Humidity 75    
Minimum Humidity 42    
Precipitation  
Precipitation 0.00 in 0.11 in 1.56 in (1929)
Month to date precipitation 2.83  
Year to date precipitation 5.93  
Snow  
Snow 0.00 in 0.10 in 10.90 in (1993)
Month to date snowfall 3.5  
Since 1 July snowfall 10.4  
Snow Depth -    
Sea Level Pressure  
Sea Level Pressure 30.23 in    
Wind  
Wind Speed 9 mph (WNW)    
Max Wind Speed 23 mph    
Max Gust Speed 29 mph    
Visibility 10 miles    
Events Snow    
T = Trace of Precipitation, MM = Missing Value Source: NWS Daily Summary

Daily Weather History Graph

Daily Weather History Graph

Search for Another Location

Airport or City:

Trip Planner

Search our weather history database for the weather conditions in past years. The results will help you decide how hot, cold, wet, or windy it might be!

Date:

Astronomy

Feb. 25, 2012 Rise Set
Actual Time 6:31 AM CST 5:40 PM CST
Civil Twilight 6:04 AM CST 6:07 PM CST
Nautical Twilight 5:33 AM CST 6:38 PM CST
Astronomical Twilight 5:02 AM CST 7:09 PM CST
Moon 7:58 AM CST (2/25) 9:38 PM CST (2/25)
Length of Visible Light 12h 03m
Length of Day
11h 09m
Waxing Crescent, 14% of the Moon is Illuminated
Feb 25
Waxing Crescent
Feb 29
First Quarter
Mar 8
Full
Mar 14
Last Quarter
Mar 22
New

Hourly Weather History & Observations

Time (CST) Temp. Windchill Dew Point Humidity Pressure Visibility Wind Dir Wind Speed Gust Speed Precip Events Conditions
12:15 AM 33.8 °F 27.0 °F 23.0 °F 65% 30.11 in 10.0 mi West 8.1 mph - N/A   Overcast
12:35 AM 33.8 °F 26.4 °F 23.0 °F 65% 30.12 in 10.0 mi West 9.2 mph - N/A   Overcast
12:55 AM 33.8 °F 26.4 °F 24.8 °F 70% 30.13 in 10.0 mi West 9.2 mph - N/A   Overcast
1:15 AM 33.8 °F 27.0 °F 23.0 °F 65% 30.12 in 10.0 mi West 8.1 mph - N/A   Overcast
1:35 AM 33.8 °F 28.6 °F 23.0 °F 65% 30.13 in 10.0 mi West 5.8 mph - N/A   Overcast
1:55 AM 33.8 °F 26.4 °F 21.2 °F 60% 30.14 in 10.0 mi West 9.2 mph - N/A   Overcast
2:15 AM 33.8 °F 24.8 °F 21.2 °F 60% 30.13 in 10.0 mi WNW 12.7 mph - N/A   Overcast
2:35 AM 33.8 °F 27.0 °F 21.2 °F 60% 30.13 in 10.0 mi WNW 8.1 mph - N/A   Overcast
2:55 AM 33.8 °F 29.6 °F 21.2 °F 60% 30.13 in 10.0 mi West 4.6 mph - N/A   Overcast
3:15 AM 32.0 °F 28.7 °F 21.2 °F 64% 30.13 in 10.0 mi West 3.5 mph - N/A   Overcast
3:35 AM 32.0 °F 28.7 °F 21.2 °F 64% 30.13 in 10.0 mi West 3.5 mph - N/A   Overcast
3:55 AM 32.0 °F 27.5 °F 21.2 °F 64% 30.13 in 10.0 mi WSW 4.6 mph - N/A   Overcast
4:15 AM 32.0 °F 25.6 °F 23.0 °F 69% 30.13 in 10.0 mi West 6.9 mph - N/A   Overcast
4:35 AM 32.0 °F 27.5 °F 24.8 °F 75% 30.13 in 10.0 mi West 4.6 mph - N/A   Overcast
4:55 AM 32.0 °F 27.5 °F 23.0 °F 69% 30.13 in 10.0 mi WSW 4.6 mph - N/A   Overcast
5:15 AM 32.0 °F 27.5 °F 23.0 °F 69% 30.13 in 10.0 mi WSW 4.6 mph - N/A   Mostly Cloudy
5:35 AM 30.2 °F 26.7 °F 23.0 °F 75% 30.13 in 10.0 mi WSW 3.5 mph - N/A   Scattered Clouds
5:55 AM 30.2 °F 26.7 °F 21.2 °F 69% 30.14 in 10.0 mi WSW 3.5 mph - N/A   Clear
6:15 AM 30.2 °F 25.4 °F 23.0 °F 75% 30.15 in 10.0 mi WSW 4.6 mph - N/A   Scattered Clouds
6:35 AM 32.0 °F 23.0 °F 23.0 °F 69% 30.15 in 10.0 mi West 11.5 mph 17.3 mph N/A   Mostly Cloudy
6:55 AM 32.0 °F 24.2 °F 23.0 °F 69% 30.16 in 10.0 mi West 9.2 mph 16.1 mph N/A   Mostly Cloudy
7:15 AM 32.0 °F 21.6 °F 23.0 °F 69% 30.18 in 10.0 mi WNW 15.0 mph 24.2 mph N/A   Clear
7:35 AM 33.8 °F 21.6 °F 21.2 °F 60% 30.19 in 10.0 mi WNW 23.0 mph 27.6 mph N/A   Mostly Cloudy
7:55 AM 33.8 °F 22.8 °F 21.2 °F 60% 30.20 in 10.0 mi WNW 18.4 mph 25.3 mph N/A   Mostly Cloudy
8:15 AM 33.8 °F 22.8 °F 21.2 °F 60% 30.22 in 10.0 mi WNW 18.4 mph 23.0 mph N/A   Mostly Cloudy
8:35 AM 32.0 °F 19.8 °F 21.2 °F 64% 30.23 in 10.0 mi WNW 20.7 mph 28.8 mph N/A   Overcast
8:55 AM 33.8 °F 22.8 °F 23.0 °F 65% 30.24 in 10.0 mi WNW 18.4 mph - N/A   Overcast
9:15 AM 30.2 °F 18.9 °F 23.0 °F 75% 30.26 in 10.0 mi NW 16.1 mph - N/A Snow Light Snow
9:35 AM 30.2 °F 18.9 °F 19.4 °F 64% 30.27 in 10.0 mi NW 16.1 mph - N/A   Overcast
9:55 AM 33.8 °F 23.2 °F 19.4 °F 56% 30.29 in 10.0 mi NW 17.3 mph 28.8 mph N/A   Mostly Cloudy
10:15 AM 32.0 °F 20.1 °F 19.4 °F 60% 30.30 in 10.0 mi WNW 19.6 mph 25.3 mph N/A   Mostly Cloudy
10:35 AM 30.2 °F 20.2 °F 19.4 °F 64% 30.31 in 10.0 mi NW 12.7 mph 20.7 mph N/A   Overcast
10:55 AM 32.0 °F 22.5 °F 19.4 °F 60% 30.31 in 10.0 mi WNW 12.7 mph - N/A   Overcast
11:15 AM 33.8 °F 25.3 °F 19.4 °F 56% 30.32 in 10.0 mi WNW 11.5 mph 20.7 mph N/A   Overcast
11:35 AM 35.6 °F 28.0 °F 19.4 °F 52% 30.31 in 10.0 mi NW 10.4 mph 21.9 mph N/A   Mostly Cloudy
11:55 AM 35.6 °F 28.0 °F 19.4 °F 52% 30.31 in 10.0 mi NW 10.4 mph 16.1 mph N/A   Scattered Clouds
12:15 PM 35.6 °F 26.6 °F 19.4 °F 52% 30.30 in 10.0 mi NW 13.8 mph 19.6 mph N/A   Scattered Clouds
12:35 PM 35.6 °F 29.9 °F 17.6 °F 48% 30.30 in 10.0 mi West 6.9 mph 16.1 mph N/A   Scattered Clouds
12:55 PM 35.6 °F 27.1 °F 17.6 °F 48% 30.30 in 10.0 mi West 12.7 mph 16.1 mph N/A   Scattered Clouds
1:15 PM 37.4 °F 30.8 °F 17.6 °F 45% 30.30 in 10.0 mi WNW 9.2 mph - N/A   Scattered Clouds
1:35 PM 37.4 °F 30.8 °F 17.6 °F 45% 30.30 in 10.0 mi NW 9.2 mph - N/A   Scattered Clouds
1:55 PM 37.4 °F 29.3 °F 17.6 °F 45% 30.30 in 10.0 mi WNW 12.7 mph 18.4 mph N/A   Scattered Clouds
2:15 PM 37.4 °F 31.4 °F 17.6 °F 45% 30.30 in 10.0 mi WNW 8.1 mph - N/A   Scattered Clouds
2:35 PM 37.4 °F 30.8 °F 17.6 °F 45% 30.31 in 10.0 mi NW 9.2 mph - N/A   Scattered Clouds
2:55 PM 37.4 °F 30.3 °F 17.6 °F 45% 30.31 in 10.0 mi West 10.4 mph - N/A   Clear
3:15 PM 39.2 °F 32.5 °F 17.6 °F 42% 30.32 in 10.0 mi West 10.4 mph - N/A   Scattered Clouds
3:35 PM 39.2 °F 33.6 °F 17.6 °F 42% 30.32 in 10.0 mi WSW 8.1 mph - N/A   Mostly Cloudy
3:55 PM 39.2 °F 35.0 °F 17.6 °F 42% 30.33 in 10.0 mi West 5.8 mph - N/A   Scattered Clouds
4:15 PM 39.2 °F 33.6 °F 17.6 °F 42% 30.31 in 10.0 mi WNW 8.1 mph - N/A   Clear
4:35 PM 37.4 °F 32.1 °F 17.6 °F 45% 30.31 in 10.0 mi WNW 6.9 mph - N/A   Clear
4:55 PM 37.4 °F 34.9 °F 17.6 °F 45% 30.31 in 10.0 mi WNW 3.5 mph - N/A   Clear
5:15 PM 35.6 °F 32.8 °F 17.6 °F 48% 30.31 in 10.0 mi West 3.5 mph - N/A   Clear
5:35 PM 33.8 °F - 19.4 °F 56% 30.31 in 10.0 mi Calm Calm - N/A   Clear
5:55 PM 32.0 °F - 21.2 °F 64% 30.31 in 10.0 mi Calm Calm - N/A   Clear
6:15 PM 30.2 °F - 19.4 °F 64% 30.32 in 10.0 mi Calm Calm - N/A   Clear
6:35 PM 30.2 °F - 19.4 °F 64% 30.33 in 10.0 mi Calm Calm - N/A   Clear
6:55 PM 30.2 °F - 17.6 °F 60% 30.33 in 10.0 mi Calm Calm - N/A   Clear
7:15 PM 30.2 °F - 17.6 °F 60% 30.33 in 10.0 mi Calm Calm - N/A   Clear
7:35 PM 28.4 °F - 19.4 °F 69% 30.33 in 10.0 mi Calm Calm - N/A   Clear
7:55 PM 26.6 °F - 19.4 °F 74% 30.33 in 10.0 mi Calm Calm - N/A   Clear
8:15 PM 26.6 °F 22.6 °F 21.2 °F 80% 30.33 in 10.0 mi East 3.5 mph - N/A   Clear
8:35 PM 26.6 °F - 19.4 °F 74% 30.33 in 10.0 mi Calm Calm - N/A   Clear
8:55 PM 26.6 °F - 19.4 °F 74% 30.33 in 10.0 mi Calm Calm - N/A   Clear
9:15 PM 26.6 °F 21.2 °F 19.4 °F 74% 30.33 in 10.0 mi East 4.6 mph - N/A   Clear
9:35 PM 26.6 °F 19.1 °F 19.4 °F 74% 30.33 in 10.0 mi East 6.9 mph - N/A   Clear
9:55 PM 26.6 °F 21.2 °F 19.4 °F 74% 30.33 in 10.0 mi East 4.6 mph - N/A   Clear
10:15 PM 26.6 °F 19.1 °F 19.4 °F 74% 30.33 in 10.0 mi ESE 6.9 mph - N/A   Clear
10:35 PM 28.4 °F 22.2 °F 19.4 °F 69% 30.32 in 10.0 mi ESE 5.8 mph - N/A   Clear
10:55 PM 26.6 °F 20.0 °F 19.4 °F 74% 30.32 in 10.0 mi ESE 5.8 mph - N/A   Clear
11:35 PM 26.6 °F 20.0 °F 19.4 °F 74% 30.30 in 10.0 mi ESE 5.8 mph - N/A   Clear
11:55 PM 28.4 °F 21.2 °F 19.4 °F 69% 30.30 in 10.0 mi East 6.9 mph - N/A   Clear